Weather History for KSNY - June, 2012

Change the Weather History Date:

Thursday, June 7, 2012

  Actual Average Record
Temperature  
Mean Temperature 72 °F 64 °F  
Max Temperature 83 °F 78 °F 100 °F (2006)
Min Temperature 60 °F 50 °F 36 °F (1974)
Cooling Degree Days 7 3  
Month to date cooling degree days 49 15  
Year to date cooling degree days 103 37  
Since 1 June cooling degree days 49 15  
Growing Degree Days 20 (Base 50)    
Moisture  
Dew Point 57 °F    
Average Humidity 63    
Maximum Humidity 84    
Minimum Humidity 42    
Precipitation  
Precipitation 1.09 in 0.11 in 1.09 in (2012)
Month to date precipitation 1.36 0.77  
Year to date precipitation 4.03 7.53  
Sea Level Pressure  
Sea Level Pressure 29.97 in    
Wind  
Wind Speed 17 mph (SSE)    
Max Wind Speed 40 mph    
Max Gust Speed 52 mph    
Visibility 8 miles    
Events Rain , Thunderstorm    
T = Trace of Precipitation, MM = Missing Value Source: NWS Daily Summary

Daily Weather History Graph

Daily Weather History Graph

Search for Another Location

Airport or City:

Trip Planner

Search our weather history database for the weather conditions in past years. The results will help you decide how hot, cold, wet, or windy it might be!

Date:

Astronomy

Jun. 07, 2012 Rise Set
Actual Time 5:19 AM MDT 8:22 PM MDT
Civil Twilight 4:46 AM MDT 8:55 PM MDT
Nautical Twilight 4:03 AM MDT 9:38 PM MDT
Astronomical Twilight 3:13 AM MDT 10:28 PM MDT
Moon 11:12 PM MDT (6/7) 8:54 AM MDT (6/7)
Length of Visible Light 16h 09m
Length of Day
15h 02m
Waning Gibbous, 85% of the Moon is Illuminated
Jun 7
Waning Gibbous
Jun 11
Last Quarter
Jun 19
New
Jun 26
First Quarter
Jul 3
Full

Hourly Weather History & Observations

Time (MDT) Temp. Heat Index Dew Point Humidity Pressure Visibility Wind Dir Wind Speed Gust Speed Precip Events Conditions
1:23 AM 66.2 °F - 57.2 °F 73% 30.03 in 6.0 mi SE 27.6 mph 32.2 mph 0.02 in Rain , Thunderstorm Light Thunderstorms and Rain
1:53 AM 66.0 °F - 60.1 °F 81% 29.86 in 10.0 mi SSE 10.4 mph - 0.03 in Rain , Thunderstorm Light Thunderstorms and Rain
2:05 AM 66.2 °F - 60.8 °F 83% 30.02 in 10.0 mi SSE 10.4 mph - 0.00 in Rain Light Rain
2:53 AM 64.9 °F - 59.0 °F 81% 30.04 in 10.0 mi SSE 12.7 mph - 0.00 in Rain Light Rain
3:53 AM 64.0 °F - 59.0 °F 84% 30.06 in 10.0 mi SSE 11.5 mph - 0.00 in   Partly Cloudy
4:53 AM 64.0 °F - 59.0 °F 84% 30.09 in 9.0 mi SSW 13.8 mph - N/A   Mostly Cloudy
5:12 AM 64.4 °F - 57.2 °F 77% 30.11 in 2.5 mi South 15.0 mph 28.8 mph 0.15 in Rain , Thunderstorm Heavy Rain
5:26 AM 62.6 °F - 53.6 °F 72% 30.09 in 5.0 mi SSW 11.5 mph 32.2 mph 0.22 in Rain , Thunderstorm Rain
5:49 AM 60.8 °F - 53.6 °F 77% 30.04 in 8.0 mi NE 13.8 mph 20.7 mph 0.25 in Rain Light Rain
5:53 AM 62.1 °F - 52.0 °F 70% 29.85 in 9.0 mi NE 19.6 mph - 0.26 in Rain Light Rain
6:40 AM 62.6 °F - 57.2 °F 82% 30.07 in 10.0 mi SSE 17.3 mph 23.0 mph 0.00 in   Clear
6:53 AM 63.0 °F - 59.0 °F 87% 29.92 in 6.0 mi SSE 11.5 mph - 0.00 in   Clear
7:53 AM 66.0 °F - 61.0 °F 84% 29.92 in 9.0 mi SSE 16.1 mph 20.7 mph N/A   Clear
8:43 AM 66.2 °F - 60.8 °F 83% 30.07 in 10.0 mi SSE 15.0 mph 21.9 mph N/A   Mostly Cloudy
8:53 AM 68.0 °F - 60.1 °F 76% 29.93 in 10.0 mi SSE 16.1 mph 23.0 mph N/A   Scattered Clouds
9:53 AM 69.1 °F - 57.0 °F 65% 29.93 in 10.0 mi South 21.9 mph 27.6 mph N/A   Mostly Cloudy
10:25 AM 69.8 °F - 55.4 °F 60% 30.07 in 10.0 mi SSE 18.4 mph 25.3 mph N/A   Overcast
10:53 AM 70.0 °F - 55.9 °F 61% 29.92 in 10.0 mi SSE 18.4 mph 26.5 mph N/A   Overcast
11:53 AM 71.1 °F - 57.0 °F 61% 29.91 in 10.0 mi SSE 18.4 mph 25.3 mph N/A   Overcast
12:08 PM 71.6 °F - 57.2 °F 60% 30.05 in 10.0 mi South 16.1 mph - N/A   Overcast
12:53 PM 75.9 °F - 57.0 °F 52% 29.89 in - SSE 19.6 mph 26.5 mph N/A   Unknown
1:53 PM 79.0 °F - 57.0 °F 47% 29.86 in 10.0 mi South 17.3 mph 28.8 mph N/A   Mostly Cloudy
2:53 PM 81.0 °F 81.0 °F 57.0 °F 44% 29.86 in 10.0 mi SSE 21.9 mph 29.9 mph N/A   Scattered Clouds
3:53 PM 81.0 °F 81.0 °F 57.0 °F 44% 29.84 in 10.0 mi SSE 18.4 mph 28.8 mph N/A   Mostly Cloudy
4:53 PM 78.1 °F - 55.9 °F 46% 29.86 in 10.0 mi SSE 12.7 mph 20.7 mph N/A   Mostly Cloudy
5:53 PM 80.1 °F 80.1 °F 55.0 °F 42% 29.86 in 10.0 mi SSE 16.1 mph - N/A   Clear
6:53 PM 75.9 °F - 55.9 °F 50% 29.80 in 10.0 mi SE 15.0 mph - N/A Thunderstorm Scattered Clouds
7:13 PM 71.6 °F - 60.8 °F 69% 30.04 in 5.0 mi West 15.0 mph 23.0 mph 0.10 in Rain , Thunderstorm Thunderstorms and Rain
7:21 PM 66.2 °F - 60.8 °F 83% 30.06 in 1.5 mi West 26.5 mph 33.4 mph 0.29 in Rain , Thunderstorm Heavy Thunderstorms and Rain
7:26 PM 64.4 °F - 60.8 °F 88% 30.05 in 0.8 mi NW 20.7 mph 33.4 mph 0.50 in Rain , Thunderstorm Heavy Thunderstorms and Rain
7:33 PM 62.6 °F - 59.0 °F 88% 30.05 in 1.2 mi NNW 17.3 mph 28.8 mph 0.63 in Rain , Thunderstorm Heavy Thunderstorms and Rain
7:36 PM 62.6 °F - 59.0 °F 88% 30.06 in 2.0 mi NNW 16.1 mph 28.8 mph 0.65 in Rain , Thunderstorm Heavy Thunderstorms and Rain
7:45 PM 62.6 °F - 57.2 °F 82% 30.05 in 6.0 mi North 16.1 mph 27.6 mph 0.68 in Rain , Thunderstorm Thunderstorms and Rain
7:53 PM 64.9 °F - 57.9 °F 78% 29.92 in 8.0 mi North 3.5 mph 27.6 mph 0.69 in Rain , Thunderstorm Light Thunderstorms and Rain
8:51 PM 60.8 °F - 53.6 °F 77% 30.10 in 9.0 mi SSE 23.0 mph 26.5 mph 0.07 in Rain , Thunderstorm Light Thunderstorms and Rain
8:53 PM 61.0 °F - 53.1 °F 75% 29.98 in 8.0 mi SSE 20.7 mph 26.5 mph 0.08 in Rain , Thunderstorm Light Thunderstorms and Rain
9:41 PM 62.6 °F - 53.6 °F 72% 30.05 in 10.0 mi South 29.9 mph 35.7 mph 0.03 in Rain Light Rain
9:53 PM 62.1 °F - 54.0 °F 75% 29.89 in 10.0 mi South 35.7 mph 51.8 mph 0.03 in Rain Light Rain
10:53 PM 63.0 °F - 51.1 °F 65% 29.85 in 10.0 mi South 26.5 mph 35.7 mph 0.00 in   Partly Cloudy
11:53 PM 64.0 °F - 51.1 °F 63% 29.89 in 10.0 mi SSW 12.7 mph - N/A   Clear